Regional Weather Roundup
Issued by NWS Kansas City/Pleasant Hill, MO

Home | Current Version | Previous Version | Graphics & Text | Print | Product List | Glossary Off
Versions: 1 2 3 4 5 6 7 8 9 10 11 12 13 14 15 16 17 18 19 20 21 22 23 24 25 26 27

000
ASUS43 KEAX 170810
RWREAX

WEATHER ROUNDUP FOR EASTERN KANSAS AND NORTHWEST MISSOURI
NATIONAL WEATHER SERVICE KANSAS CITY/PLEASANT HILL MO
200 AM CST WED JAN 17 2018

KSZ040-057-103>105-MOZ028-029-037-043-170900-
...KANSAS CITY METROPOLITAN AREA...

CITY           SKY/WX    TMP DP  RH WIND       PRES   REMARKS
K.C. INTL      CLOUDY    -1  -5  82 S6        30.66F WCI -13
K.C. DOWNTOWN  CLOUDY     5  -1  76 S5        30.70S WCI  -4
LEES SUMMIT    CLEAR      2  -1  88 SW5       30.68S WCI  -8
OLATHE - IXD   CLOUDY    -1  -4  87 CALM      30.67F
OLATHE - OJC   CLOUDY     1  -2  87 CALM      30.66F
LAWRENCE       CLOUDY    -4  -9  79 E3        30.69F

$$

MOZ001>008-011>017-020>025-030>033-038>040-044>046-053-054-170900-
...NORTHERN AND CENTRAL MISSOURI...

CITY           SKY/WX    TMP DP  RH WIND       PRES   REMARKS
ST. JOSEPH       N/A    N/A N/A N/A MISG      30.69S
MOSBY          CLOUDY    -4  -8  84 CALM      30.70S
WARRENSBURG    CLOUDY    -4  -8  84 CALM      30.70S
WHITEMAN AFB   CLEAR     -4 -10  77 SW5       30.65S WCI -15
CLINTON        CLOUDY    -4  -8  84 CALM      30.71S
SEDALIA        CLOUDY     0  -2  91 W5        30.69F WCI -10
WARSAW         NOT AVBL
CHILLICOTHE      N/A     -3  -7  82 CALM      30.69F
KIRKSVILLE     CLOUDY    -1  -3  91 CALM      30.64F

$$

MOZ041-047>049-056>058-063>065-088>090-097-170900-
...EASTERN AND SOUTHERN MISSOURI...

CITY           SKY/WX    TMP DP  RH WIND       PRES   REMARKS
ST. LOUIS INTL PTCLDY     7   1  76 W10       30.68S WCI  -8
SPIRIT OF STL  CLEAR      4   0  83 W7        30.69S WCI  -8
COLUMBIA       CLOUDY     1  -4  79 W5        30.67F WCI  -9
JEFFERSON CITY CLOUDY     1  -3  83 NW3       30.72F
ROLLA          CLOUDY     1  -2  87 W6        30.65S WCI -10
OSAGE BEACH    CLOUDY    -5 -12  72 CALM      30.70S
SPRINGFIELD    CLOUDY    -7 -11  83 CALM      30.65S
BRANSON        CLOUDY     0  -2  92 SW3       30.67S
JOPLIN         PTCLDY    -1  -4  87 S3        30.71F
WEST PLAINS    CLEAR      1  -3  83 CALM      30.63F

$$

IAZ060-094-KSZ022-034>040-054-083-096-NEZ052-066-093-170900-
...KANSAS...SOUTHEAST NEBRASKA AND IOWA...

CITY           SKY/WX    TMP DP  RH WIND       PRES   REMARKS
TOPEKA         PTCLDY    -2  -6  83 E3        30.68F
MANHATTAN      CLOUDY    -1  -6  79 CALM      30.66F
EMPORIA        CLOUDY     1  -3  83 S6        30.66S WCI -10
CHANUTE        CLOUDY     2  -3  80 CALM      30.70F
WICHITA        CLOUDY     3   0  87 SW5       30.66S WCI  -6
OMAHA          CLOUDY     1  -3  83 SE9       30.61F WCI -14
LINCOLN        CLOUDY     1  -4  79 S5        30.60F WCI  -9
FALLS CITY     CLEAR     -2  -7  79 S3        30.64F
LAMONI         CLOUDY     0  -5  79 W6        30.61F WCI -12
DES MOINES     CLOUDY    -2  -7  79 W3        30.61F

$$





USA.gov is the U.S. government's official web portal to all federal, state and local government web resources and services.